Tabellarische Ansicht des 4.6.2017


Die einzelnen Werte des Tages

Uhrzeit Temperatur Luftdruck Luftfeuchte Wind Hi-Wind Taupunkt THW Index Wind Chill Heat Index Solar- strahlung Regen

00:00

19.8 C

1006.4 hpa

76 %

3.2 km/h aus 114

4.8 km/h aus SW

15.4 C

20.3 C

19.8 C

20.3 C

0 W/m

0.00 mm

00:05

19.8 C

1006.4 hpa

76 %

4.8 km/h aus 115

9.7 km/h aus SSW

15.4 C

20.3 C

19.8 C

20.3 C

0 W/m

0.00 mm

00:10

19.7 C

1006.4 hpa

77 %

3.2 km/h aus 115

6.4 km/h aus SSW

15.6 C

20.3 C

19.7 C

20.3 C

0 W/m

0.00 mm

00:15

19.7 C

1006.4 hpa

77 %

3.2 km/h aus 117

8.0 km/h aus SSW

15.5 C

20.2 C

19.7 C

20.2 C

0 W/m

0.00 mm

00:20

19.6 C

1006.4 hpa

77 %

3.2 km/h aus 115

8.0 km/h aus SW

15.5 C

20.1 C

19.6 C

20.1 C

0 W/m

0.00 mm

00:25

19.6 C

1006.4 hpa

77 %

4.8 km/h aus 117

8.0 km/h aus WSW

15.4 C

20.1 C

19.6 C

20.1 C

0 W/m

0.00 mm

00:30

19.5 C

1006.7 hpa

77 %

3.2 km/h aus 116

8.0 km/h aus WSW

15.4 C

20.0 C

19.5 C

20.0 C

0 W/m

0.00 mm

00:35

19.5 C

1006.7 hpa

77 %

4.8 km/h aus 116

9.7 km/h aus WSW

15.4 C

20.0 C

19.5 C

20.0 C

0 W/m

0.00 mm

00:40

19.4 C

1006.7 hpa

78 %

3.2 km/h aus 115

9.7 km/h aus WSW

15.5 C

19.9 C

19.4 C

19.9 C

0 W/m

0.00 mm

00:45

19.4 C

1006.5 hpa

78 %

4.8 km/h aus 115

11.3 km/h aus WSW

15.5 C

19.9 C

19.4 C

19.9 C

0 W/m

0.00 mm

00:50

19.3 C

1006.5 hpa

78 %

4.8 km/h aus 117

9.7 km/h aus WSW

15.4 C

19.8 C

19.3 C

19.8 C

0 W/m

0.00 mm

00:55

19.3 C

1006.5 hpa

78 %

8.0 km/h aus 117

14.5 km/h aus SW

15.3 C

19.8 C

19.3 C

19.8 C

0 W/m

0.00 mm

01:00

19.2 C

1006.5 hpa

78 %

6.4 km/h aus 117

11.3 km/h aus W

15.3 C

19.7 C

19.2 C

19.7 C

0 W/m

0.00 mm

01:05

19.2 C

1006.5 hpa

78 %

8.0 km/h aus 113

14.5 km/h aus W

15.2 C

19.6 C

19.2 C

19.6 C

0 W/m

0.00 mm

01:10

19.1 C

1006.5 hpa

79 %

6.4 km/h aus 116

12.9 km/h aus SW

15.3 C

19.6 C

19.1 C

19.6 C

0 W/m

0.00 mm

01:15

19.0 C

1006.7 hpa

79 %

4.8 km/h aus 116

9.7 km/h aus W

15.3 C

19.5 C

19.0 C

19.5 C

0 W/m

0.00 mm

01:20

18.9 C

1006.7 hpa

80 %

8.0 km/h aus 117

17.7 km/h aus WSW

15.4 C

19.4 C

18.9 C

19.4 C

0 W/m

0.00 mm

01:25

18.8 C

1006.7 hpa

80 %

9.7 km/h aus 115

17.7 km/h aus WSW

15.3 C

19.3 C

18.8 C

19.3 C

0 W/m

0.00 mm

01:30

18.7 C

1006.6 hpa

80 %

9.7 km/h aus 115

20.9 km/h aus WSW

15.2 C

19.2 C

18.7 C

19.2 C

0 W/m

0.00 mm

01:35

18.7 C

1006.6 hpa

81 %

8.0 km/h aus 116

17.7 km/h aus W

15.3 C

19.1 C

18.7 C

19.1 C

0 W/m

0.00 mm

01:40

18.6 C

1006.6 hpa

81 %

6.4 km/h aus 117

14.5 km/h aus WSW

15.3 C

19.1 C

18.6 C

19.1 C

0 W/m

0.00 mm

01:45

18.6 C

1006.9 hpa

82 %

4.8 km/h aus 117

12.9 km/h aus W

15.4 C

19.0 C

18.6 C

19.0 C

0 W/m

0.00 mm

01:50

18.4 C

1006.9 hpa

83 %

6.4 km/h aus 114

12.9 km/h aus SW

15.5 C

18.9 C

18.4 C

18.9 C

0 W/m

0.00 mm

01:55

18.4 C

1006.9 hpa

83 %

6.4 km/h aus 116

9.7 km/h aus SW

15.4 C

18.8 C

18.4 C

18.8 C

0 W/m

0.00 mm

02:00

18.3 C

1006.9 hpa

83 %

4.8 km/h aus 117

14.5 km/h aus SW

15.4 C

18.8 C

18.3 C

18.8 C

0 W/m

0.00 mm

02:05

18.2 C

1006.9 hpa

84 %

6.4 km/h aus 117

11.3 km/h aus SSW

15.5 C

18.6 C

18.2 C

18.6 C

0 W/m

0.00 mm

02:10

18.1 C

1006.9 hpa

85 %

8.0 km/h aus 115

17.7 km/h aus WSW

15.5 C

18.5 C

18.1 C

18.5 C

0 W/m

0.25 mm

02:15

18.1 C

1006.9 hpa

85 %

8.0 km/h aus 114

19.3 km/h aus WSW

15.5 C

18.4 C

18.1 C

18.4 C

0 W/m

0.00 mm

02:20

17.9 C

1006.9 hpa

85 %

9.7 km/h aus 116

19.3 km/h aus WSW

15.4 C

18.3 C

17.9 C

18.3 C

0 W/m

0.00 mm

02:25

17.8 C

1006.9 hpa

86 %

11.3 km/h aus 117

19.3 km/h aus W

15.5 C

18.2 C

17.8 C

18.2 C

0 W/m

0.25 mm

02:30

17.7 C

1006.9 hpa

86 %

9.7 km/h aus 117

19.3 km/h aus WSW

15.3 C

18.0 C

17.7 C

18.0 C

0 W/m

0.00 mm

02:35

17.6 C

1006.9 hpa

87 %

9.7 km/h aus 114

17.7 km/h aus W

15.4 C

18.0 C

17.6 C

18.0 C

0 W/m

0.00 mm

02:40

17.5 C

1006.9 hpa

87 %

12.9 km/h aus 115

19.3 km/h aus W

15.3 C

17.4 C

17.1 C

17.8 C

0 W/m

0.00 mm

02:45

17.4 C

1006.9 hpa

87 %

9.7 km/h aus 117

17.7 km/h aus WSW

15.2 C

17.7 C

17.4 C

17.7 C

0 W/m

0.25 mm

02:50

17.3 C

1006.9 hpa

88 %

9.7 km/h aus 116

19.3 km/h aus SW

15.3 C

17.7 C

17.3 C

17.7 C

0 W/m

0.00 mm

02:55

17.3 C

1006.9 hpa

88 %

11.3 km/h aus 116

19.3 km/h aus W

15.3 C

17.6 C

17.2 C

17.6 C

0 W/m

0.25 mm

03:00

17.2 C

1006.9 hpa

89 %

11.3 km/h aus 113

20.9 km/h aus WSW

15.3 C

17.4 C

17.1 C

17.5 C

0 W/m

0.00 mm

03:05

17.1 C

1006.9 hpa

89 %

9.7 km/h aus 116

19.3 km/h aus WSW

15.3 C

17.4 C

17.1 C

17.4 C

0 W/m

0.00 mm

03:10

17.1 C

1006.9 hpa

89 %

11.3 km/h aus 116

19.3 km/h aus W

15.2 C

17.3 C

16.9 C

17.4 C

0 W/m

0.25 mm

03:15

17.0 C

1006.9 hpa

90 %

8.0 km/h aus 117

19.3 km/h aus W

15.3 C

17.3 C

17.0 C

17.3 C

0 W/m

0.00 mm

03:20

17.0 C

1006.9 hpa

90 %

8.0 km/h aus 116

17.7 km/h aus W

15.3 C

17.3 C

17.0 C

17.3 C

0 W/m

0.25 mm

03:25

16.9 C

1006.9 hpa

90 %

9.7 km/h aus 114

20.9 km/h aus W

15.3 C

17.3 C

16.9 C

17.3 C

0 W/m

0.00 mm

03:30

16.9 C

1006.9 hpa

90 %

11.3 km/h aus 118

19.3 km/h aus WSW

15.2 C

17.1 C

16.8 C

17.2 C

0 W/m

0.25 mm

03:35

16.8 C

1006.9 hpa

90 %

9.7 km/h aus 116

17.7 km/h aus WSW

15.2 C

17.2 C

16.8 C

17.2 C

0 W/m

0.25 mm

03:40

16.8 C

1006.9 hpa

91 %

9.7 km/h aus 117

17.7 km/h aus WSW

15.3 C

17.1 C

16.8 C

17.1 C

0 W/m

0.00 mm

03:45

16.8 C

1006.9 hpa

91 %

11.3 km/h aus 116

20.9 km/h aus WNW

15.3 C

16.9 C

16.6 C

17.1 C

0 W/m

0.25 mm

03:50

16.7 C

1006.9 hpa

91 %

11.3 km/h aus 115

19.3 km/h aus W

15.2 C

16.9 C

16.6 C

17.1 C

0 W/m

0.00 mm

03:55

16.7 C

1006.9 hpa

91 %

12.9 km/h aus 117

22.5 km/h aus W

15.2 C

16.4 C

16.1 C

17.1 C

0 W/m

0.25 mm

04:00

16.7 C

1006.8 hpa

91 %

12.9 km/h aus 117

20.9 km/h aus W

15.2 C

16.3 C

16.1 C

16.9 C

0 W/m

0.00 mm

04:05

16.7 C

1006.8 hpa

92 %

9.7 km/h aus 117

17.7 km/h aus WSW

15.4 C

17.0 C

16.7 C

17.0 C

0 W/m

0.00 mm

04:10

16.6 C

1006.8 hpa

92 %

11.3 km/h aus 115

17.7 km/h aus WSW

15.3 C

16.8 C

16.4 C

16.9 C

0 W/m

0.25 mm

04:15

16.6 C

1006.9 hpa

92 %

12.9 km/h aus 114

19.3 km/h aus W

15.3 C

16.3 C

15.9 C

16.9 C

0 W/m

0.00 mm

04:20

16.6 C

1006.9 hpa

92 %

11.3 km/h aus 117

20.9 km/h aus W

15.3 C

16.7 C

16.3 C

16.9 C

0 W/m

0.00 mm

04:25

16.5 C

1006.9 hpa

92 %

12.9 km/h aus 117

19.3 km/h aus WNW

15.2 C

16.1 C

15.8 C

16.8 C

0 W/m

0.25 mm

04:30

16.4 C

1007.0 hpa

93 %

12.9 km/h aus 117

19.3 km/h aus WNW

15.3 C

16.1 C

15.8 C

16.8 C

0 W/m

0.00 mm

04:35

16.4 C

1007.0 hpa

92 %

12.9 km/h aus 113

20.9 km/h aus WSW

15.1 C

16.0 C

15.7 C

16.7 C

0 W/m

0.00 mm

04:40

16.3 C

1007.0 hpa

92 %

14.5 km/h aus 115

24.1 km/h aus WSW

15.0 C

15.4 C

15.1 C

16.6 C

0 W/m

0.25 mm

04:45

16.1 C

1007.3 hpa

92 %

14.5 km/h aus 117

25.7 km/h aus WSW

14.8 C

15.2 C

14.9 C

16.3 C

0 W/m

0.00 mm

04:50

15.9 C

1007.3 hpa

92 %

14.5 km/h aus 116

24.1 km/h aus W

14.6 C

14.9 C

14.7 C

16.1 C

0 W/m

0.00 mm

04:55

15.7 C

1007.3 hpa

92 %

12.9 km/h aus 116

29.0 km/h aus W

14.4 C

15.2 C

14.9 C

15.9 C

0 W/m

0.25 mm

05:00

15.6 C

1007.4 hpa

92 %

12.9 km/h aus 114

20.9 km/h aus WSW

14.3 C

14.9 C

14.7 C

15.7 C

0 W/m

0.00 mm

05:05

15.4 C

1007.4 hpa

92 %

11.3 km/h aus 117

19.3 km/h aus WNW

14.2 C

15.2 C

15.0 C

15.6 C

0 W/m

0.00 mm

05:10

15.3 C

1007.4 hpa

92 %

9.7 km/h aus 117

16.1 km/h aus W

14.0 C

15.2 C

15.1 C

15.5 C

0 W/m

0.00 mm

05:15

15.3 C

1007.5 hpa

92 %

9.7 km/h aus 116

17.7 km/h aus WSW

14.0 C

15.2 C

15.0 C

15.4 C

0 W/m

0.00 mm

05:20

15.2 C

1007.5 hpa

92 %

11.3 km/h aus 115

20.9 km/h aus WSW

13.9 C

14.9 C

14.7 C

15.4 C

0 W/m

0.25 mm

05:25

15.2 C

1007.5 hpa

92 %

9.7 km/h aus 114

17.7 km/h aus W

13.9 C

15.1 C

14.9 C

15.4 C

1 W/m

0.00 mm

05:30

15.2 C

1007.5 hpa

92 %

9.7 km/h aus 117

19.3 km/h aus W

13.9 C

15.1 C

14.9 C

15.4 C

4 W/m

0.00 mm

05:35

15.2 C

1007.5 hpa

92 %

11.3 km/h aus 117

19.3 km/h aus WSW

13.9 C

14.9 C

14.7 C

15.4 C

7 W/m

0.00 mm

05:40

15.2 C

1007.5 hpa

93 %

11.3 km/h aus 117

22.5 km/h aus W

14.0 C

14.8 C

14.7 C

15.3 C

10 W/m

0.00 mm

05:45

15.1 C

1007.5 hpa

93 %

9.7 km/h aus 116

16.1 km/h aus W

14.0 C

14.9 C

14.8 C

15.3 C

11 W/m

0.00 mm

05:50

15.1 C

1007.5 hpa

93 %

11.3 km/h aus 113

24.1 km/h aus WSW

13.9 C

14.7 C

14.5 C

15.2 C

13 W/m

0.00 mm

05:55

15.1 C

1007.5 hpa

93 %

9.7 km/h aus 117

19.3 km/h aus W

13.9 C

14.9 C

14.7 C

15.2 C

12 W/m

0.25 mm

06:00

15.0 C

1007.5 hpa

93 %

11.3 km/h aus 117

17.7 km/h aus W

13.9 C

14.6 C

14.4 C

15.2 C

9 W/m

0.00 mm

06:05

14.9 C

1007.5 hpa

93 %

12.9 km/h aus 117

24.1 km/h aus WSW

13.8 C

14.2 C

14.0 C

15.1 C

13 W/m

0.00 mm

06:10

14.8 C

1007.5 hpa

92 %

12.9 km/h aus 115

22.5 km/h aus WSW

13.5 C

14.0 C

13.8 C

15.0 C

22 W/m

0.00 mm

06:15

14.7 C

1007.7 hpa

92 %

12.9 km/h aus 113

19.3 km/h aus W

13.4 C

13.8 C

13.7 C

14.8 C

21 W/m

0.00 mm

06:20

14.6 C

1007.7 hpa

92 %

12.9 km/h aus 116

22.5 km/h aus W

13.3 C

13.6 C

13.5 C

14.7 C

26 W/m

0.00 mm

06:25

14.4 C

1007.7 hpa

92 %

11.3 km/h aus 117

20.9 km/h aus W

13.1 C

13.8 C

13.7 C

14.5 C

31 W/m

0.00 mm

06:30

14.3 C

1007.7 hpa

92 %

11.3 km/h aus 117

19.3 km/h aus W

13.0 C

13.7 C

13.6 C

14.4 C

37 W/m

0.25 mm

06:35

14.2 C

1007.7 hpa

92 %

8.0 km/h aus 115

14.5 km/h aus W

12.9 C

14.0 C

13.9 C

14.3 C

34 W/m

0.00 mm

06:40

14.1 C

1007.7 hpa

91 %

9.7 km/h aus 116

17.7 km/h aus W

12.6 C

13.6 C

13.6 C

14.1 C

34 W/m

0.00 mm

06:45

13.9 C

1007.8 hpa

91 %

8.0 km/h aus 117

16.1 km/h aus W

12.5 C

13.7 C

13.6 C

14.0 C

33 W/m

0.00 mm

06:50

13.9 C

1007.8 hpa

91 %

8.0 km/h aus 116

16.1 km/h aus W

12.4 C

13.6 C

13.6 C

13.9 C

33 W/m

0.00 mm

06:55

13.8 C

1007.8 hpa

91 %

8.0 km/h aus 117

14.5 km/h aus W

12.4 C

13.6 C

13.5 C

13.9 C

39 W/m

0.00 mm

07:00

13.8 C

1007.9 hpa

91 %

8.0 km/h aus 115

16.1 km/h aus WSW

12.3 C

13.5 C

13.4 C

13.8 C

52 W/m

0.00 mm

07:05

13.7 C

1007.9 hpa

91 %

8.0 km/h aus 115

19.3 km/h aus WSW

12.3 C

13.4 C

13.4 C

13.8 C

61 W/m

0.00 mm

07:10

13.7 C

1007.9 hpa

91 %

8.0 km/h aus 117

14.5 km/h aus W

12.3 C

13.4 C

13.4 C

13.8 C

71 W/m

0.00 mm

07:15

13.7 C

1008.0 hpa

91 %

8.0 km/h aus 116

16.1 km/h aus W

12.3 C

13.4 C

13.4 C

13.8 C

81 W/m

0.00 mm

07:20

13.7 C

1008.0 hpa

91 %

8.0 km/h aus 117

16.1 km/h aus W

12.3 C

13.4 C

13.4 C

13.8 C

85 W/m

0.00 mm

07:25

13.7 C

1008.0 hpa

91 %

8.0 km/h aus 115

24.1 km/h aus W

12.3 C

13.4 C

13.4 C

13.8 C

88 W/m

0.00 mm

07:30

13.7 C

1008.2 hpa

91 %

6.4 km/h aus 115

11.3 km/h aus W

12.3 C

13.7 C

13.7 C

13.8 C

86 W/m

0.00 mm

07:35

13.7 C

1008.2 hpa

91 %

8.0 km/h aus 117

14.5 km/h aus W

12.3 C

13.4 C

13.4 C

13.8 C

86 W/m

0.00 mm

07:40

13.8 C

1008.2 hpa

91 %

6.4 km/h aus 115

16.1 km/h aus WSW

12.3 C

13.8 C

13.8 C

13.8 C

87 W/m

0.00 mm

07:45

13.8 C

1008.5 hpa

91 %

6.4 km/h aus 118

17.7 km/h aus WSW

12.3 C

13.8 C

13.8 C

13.8 C

81 W/m

0.00 mm

07:50

13.8 C

1008.5 hpa

91 %

6.4 km/h aus 114

14.5 km/h aus WSW

12.4 C

13.9 C

13.8 C

13.9 C

80 W/m

0.00 mm

07:55

13.9 C

1008.5 hpa

91 %

6.4 km/h aus 114

16.1 km/h aus SW

12.4 C

13.9 C

13.9 C

13.9 C

81 W/m

0.00 mm

08:00

13.9 C

1008.5 hpa

91 %

8.0 km/h aus 116

16.1 km/h aus W

12.5 C

13.7 C

13.6 C

14.0 C

79 W/m

0.00 mm

08:05

13.9 C

1008.5 hpa

91 %

12.9 km/h aus 116

25.7 km/h aus W

12.5 C

12.8 C

12.8 C

14.0 C

75 W/m

0.00 mm

08:10

13.9 C

1008.5 hpa

91 %

9.7 km/h aus 117

19.3 km/h aus WSW

12.5 C

13.4 C

13.4 C

14.0 C

77 W/m

0.00 mm

08:15

14.0 C

1008.7 hpa

91 %

9.7 km/h aus 115

19.3 km/h aus W

12.6 C

13.5 C

13.4 C

14.1 C

90 W/m

0.00 mm

08:20

14.0 C

1008.7 hpa

91 %

8.0 km/h aus 115

16.1 km/h aus SW

12.6 C

13.7 C

13.7 C

14.1 C

123 W/m

0.00 mm

08:25

14.1 C

1008.7 hpa

91 %

6.4 km/h aus 116

12.9 km/h aus WSW

12.7 C

14.2 C

14.1 C

14.2 C

129 W/m

0.00 mm

08:30

14.2 C

1008.9 hpa

91 %

9.7 km/h aus 117

17.7 km/h aus WSW

12.7 C

13.7 C

13.7 C

14.2 C

99 W/m

0.00 mm

08:35

14.2 C

1008.9 hpa

91 %

9.7 km/h aus 117

19.3 km/h aus WSW

12.8 C

13.8 C

13.7 C

14.3 C

83 W/m

0.00 mm

08:40

14.2 C

1008.9 hpa

91 %

9.7 km/h aus 115

19.3 km/h aus W

12.8 C

13.8 C

13.7 C

14.3 C

98 W/m

0.00 mm

08:45

14.2 C

1009.0 hpa

91 %

12.9 km/h aus 114

20.9 km/h aus W

12.8 C

13.2 C

13.1 C

14.3 C

120 W/m

0.00 mm

08:50

14.3 C

1009.0 hpa

91 %

8.0 km/h aus 117

14.5 km/h aus W

12.8 C

14.1 C

14.0 C

14.3 C

141 W/m

0.00 mm

08:55

14.3 C

1009.0 hpa

91 %

9.7 km/h aus 117

22.5 km/h aus WSW

12.9 C

13.9 C

13.9 C

14.4 C

151 W/m

0.00 mm

09:00

14.4 C

1009.0 hpa

91 %

9.7 km/h aus 116

17.7 km/h aus W

13.0 C

14.1 C

14.0 C

14.5 C

168 W/m

0.00 mm

09:05

14.4 C

1009.0 hpa

90 %

11.3 km/h aus 114

20.9 km/h aus W

12.8 C

13.8 C

13.8 C

14.5 C

192 W/m

0.00 mm

09:10

14.7 C

1009.0 hpa

90 %

8.0 km/h aus 115

16.1 km/h aus W

13.0 C

14.6 C

14.5 C

14.7 C

224 W/m

0.00 mm

09:15

14.8 C

1009.1 hpa

90 %

6.4 km/h aus 117

11.3 km/h aus W

13.2 C

14.9 C

14.8 C

14.9 C

241 W/m

0.00 mm

09:20

14.8 C

1009.1 hpa

88 %

11.3 km/h aus 116

19.3 km/h aus W

12.9 C

14.3 C

14.2 C

14.9 C

244 W/m

0.00 mm

09:25

14.9 C

1009.1 hpa

89 %

9.7 km/h aus 117

16.1 km/h aus W

13.1 C

14.7 C

14.6 C

15.1 C

238 W/m

0.00 mm

09:30

14.9 C

1009.1 hpa

87 %

9.7 km/h aus 115

19.3 km/h aus W

12.7 C

14.6 C

14.6 C

14.9 C

276 W/m

0.00 mm

09:35

15.0 C

1009.1 hpa

86 %

11.3 km/h aus 116

20.9 km/h aus W

12.7 C

14.4 C

14.4 C

15.0 C

268 W/m

0.00 mm

09:40

14.9 C

1009.1 hpa

86 %

14.5 km/h aus 117

22.5 km/h aus WSW

12.6 C

13.6 C

13.6 C

14.9 C

260 W/m

0.00 mm

09:45

15.1 C

1009.5 hpa

85 %

11.3 km/h aus 117

19.3 km/h aus W

12.6 C

14.5 C

14.5 C

15.1 C

277 W/m

0.00 mm

09:50

15.2 C

1009.5 hpa

85 %

12.9 km/h aus 117

19.3 km/h aus W

12.7 C

14.3 C

14.3 C

15.2 C

320 W/m

0.00 mm

09:55

15.4 C

1009.5 hpa

84 %

12.9 km/h aus 115

20.9 km/h aus WSW

12.7 C

14.5 C

14.5 C

15.4 C

311 W/m

0.00 mm

10:00

15.3 C

1009.6 hpa

85 %

9.7 km/h aus 115

16.1 km/h aus W

12.8 C

15.1 C

15.1 C

15.4 C

201 W/m

0.00 mm

10:05

15.3 C

1009.6 hpa

84 %

11.3 km/h aus 117

19.3 km/h aus W

12.6 C

14.8 C

14.8 C

15.3 C

275 W/m

0.00 mm

10:10

15.4 C

1009.6 hpa

83 %

14.5 km/h aus 116

20.9 km/h aus WSW

12.6 C

14.2 C

14.2 C

15.4 C

353 W/m

0.00 mm

10:15

15.7 C

1009.6 hpa

83 %

11.3 km/h aus 116

20.9 km/h aus NW

12.8 C

15.2 C

15.2 C

15.7 C

346 W/m

0.00 mm

10:20

15.8 C

1009.6 hpa

84 %

9.7 km/h aus 114

17.7 km/h aus W

13.1 C

15.7 C

15.7 C

15.9 C

344 W/m

0.00 mm

10:25

15.9 C

1009.6 hpa

80 %

12.9 km/h aus 117

24.1 km/h aus W

12.5 C

15.2 C

15.2 C

15.9 C

365 W/m

0.00 mm

10:30

15.9 C

1009.6 hpa

79 %

16.1 km/h aus 116

25.7 km/h aus WSW

12.2 C

14.2 C

14.3 C

15.8 C

402 W/m

0.00 mm

10:35

16.2 C

1009.6 hpa

79 %

11.3 km/h aus 117

24.1 km/h aus W

12.5 C

15.8 C

15.8 C

16.2 C

487 W/m

0.00 mm

10:40

16.4 C

1009.6 hpa

79 %

11.3 km/h aus 115

20.9 km/h aus WSW

12.8 C

16.2 C

16.2 C

16.4 C

523 W/m

0.00 mm

10:45

16.8 C

1009.6 hpa

79 %

9.7 km/h aus 113

20.9 km/h aus WSW

13.2 C

16.9 C

16.8 C

16.9 C

639 W/m

0.00 mm

10:50

17.0 C

1009.6 hpa

77 %

9.7 km/h aus 117

19.3 km/h aus WSW

12.9 C

17.0 C

17.0 C

17.0 C

563 W/m

0.00 mm

10:55

17.1 C

1009.6 hpa

75 %

16.1 km/h aus 117

29.0 km/h aus W

12.6 C

15.6 C

15.6 C

17.0 C

715 W/m

0.00 mm

11:00

17.0 C

1009.6 hpa

73 %

16.1 km/h aus 117

25.7 km/h aus WSW

12.1 C

15.4 C

15.6 C

16.9 C

682 W/m

0.00 mm

11:05

17.2 C

1009.6 hpa

71 %

16.1 km/h aus 113

27.4 km/h aus WSW

11.9 C

15.7 C

15.8 C

17.1 C

541 W/m

0.00 mm

11:10

17.2 C

1009.6 hpa

74 %

16.1 km/h aus 116

27.4 km/h aus WSW

12.5 C

15.7 C

15.8 C

17.1 C

590 W/m

0.00 mm

11:15

17.2 C

1009.6 hpa

74 %

12.9 km/h aus 117

19.3 km/h aus WSW

12.5 C

16.7 C

16.7 C

17.2 C

627 W/m

0.00 mm

11:20

17.3 C

1009.6 hpa

72 %

14.5 km/h aus 115

24.1 km/h aus W

12.2 C

16.2 C

16.3 C

17.2 C

591 W/m

0.00 mm

11:25

17.8 C

1009.6 hpa

73 %

12.9 km/h aus 116

25.7 km/h aus WSW

12.9 C

17.3 C

17.3 C

17.8 C

818 W/m

0.00 mm

11:30

18.3 C

1009.7 hpa

70 %

14.5 km/h aus 115

22.5 km/h aus W

12.8 C

17.6 C

17.6 C

18.3 C

909 W/m

0.00 mm

11:35

18.3 C

1009.7 hpa

68 %

12.9 km/h aus 117

25.7 km/h aus WSW

12.3 C

17.9 C

17.9 C

18.2 C

351 W/m

0.00 mm

11:40

18.1 C

1009.7 hpa

69 %

14.5 km/h aus 116

25.7 km/h aus WSW

12.3 C

17.2 C

17.3 C

18.1 C

569 W/m

0.00 mm

11:45

18.4 C

1010.0 hpa

66 %

11.3 km/h aus 116

22.5 km/h aus W

11.9 C

18.3 C

18.4 C

18.3 C

463 W/m

0.00 mm

11:50

18.4 C

1010.0 hpa

67 %

16.1 km/h aus 114

27.4 km/h aus WSW

12.2 C

17.1 C

17.2 C

18.3 C

299 W/m

0.00 mm

11:55

19.0 C

1010.0 hpa

65 %

16.1 km/h aus 115

24.1 km/h aus W

12.3 C

17.8 C

17.9 C

18.9 C

912 W/m

0.00 mm

12:00

18.8 C

1010.1 hpa

64 %

16.1 km/h aus 117

24.1 km/h aus W

11.8 C

17.5 C

17.7 C

18.6 C

501 W/m

0.00 mm

12:05

19.2 C

1010.1 hpa

64 %

16.1 km/h aus 117

29.0 km/h aus WSW

12.2 C

17.9 C

18.1 C

19.1 C

928 W/m

0.00 mm

12:10

19.2 C

1010.1 hpa

61 %

17.7 km/h aus 115

29.0 km/h aus WNW

11.5 C

17.5 C

17.8 C

18.9 C

651 W/m

0.00 mm

12:15

19.0 C

1010.1 hpa

62 %

17.7 km/h aus 114

25.7 km/h aus W

11.6 C

17.2 C

17.5 C

18.7 C

888 W/m

0.00 mm

12:20

18.6 C

1010.1 hpa

63 %

12.9 km/h aus 117

20.9 km/h aus WSW

11.4 C

17.9 C

18.2 C

18.3 C

229 W/m

0.00 mm

12:25

18.6 C

1010.1 hpa

64 %

12.9 km/h aus 115

22.5 km/h aus WSW

11.7 C

18.1 C

18.3 C

18.4 C

506 W/m

0.00 mm

12:30

19.7 C

1010.1 hpa

61 %

11.3 km/h aus 117

20.9 km/h aus WSW

11.9 C

19.5 C

19.7 C

19.5 C

971 W/m

0.00 mm

12:35

19.6 C

1010.1 hpa

57 %

14.5 km/h aus 114

29.0 km/h aus WSW

10.9 C

18.5 C

18.9 C

19.2 C

1056 W/m

0.00 mm

12:40

19.4 C

1010.1 hpa

63 %

11.3 km/h aus 117

25.7 km/h aus SW

12.2 C

19.3 C

19.4 C

19.3 C

252 W/m

0.00 mm

12:45

19.6 C

1010.1 hpa

56 %

16.1 km/h aus 116

29.0 km/h aus W

10.5 C

18.0 C

18.4 C

19.1 C

599 W/m

0.00 mm

12:50

19.1 C

1010.1 hpa

58 %

12.9 km/h aus 117

22.5 km/h aus WNW

10.6 C

18.3 C

18.8 C

18.7 C

148 W/m

0.00 mm

12:55

19.6 C

1010.1 hpa

60 %

17.7 km/h aus 115

29.0 km/h aus W

11.6 C

17.8 C

18.1 C

19.3 C

925 W/m

0.00 mm

13:00

20.0 C

1010.1 hpa

53 %

20.9 km/h aus 115

29.0 km/h aus W

10.1 C

17.4 C

18.0 C

19.4 C

928 W/m

0.00 mm

13:05

20.4 C

1010.1 hpa

53 %

16.1 km/h aus 117

27.4 km/h aus W

10.5 C

18.7 C

19.3 C

19.8 C

989 W/m

0.00 mm

13:10

20.0 C

1010.1 hpa

52 %

20.9 km/h aus 117

30.6 km/h aus W

9.8 C

17.4 C

18.0 C

19.4 C

519 W/m

0.00 mm

13:15

19.1 C

1010.2 hpa

54 %

16.1 km/h aus 116

25.7 km/h aus WNW

9.6 C

17.4 C

18.0 C

18.5 C

208 W/m

0.00 mm

13:20

19.0 C

1010.2 hpa

57 %

12.9 km/h aus 113

22.5 km/h aus W

10.3 C

18.2 C

18.7 C

18.5 C

307 W/m

0.00 mm

13:25

19.1 C

1010.2 hpa

59 %

11.3 km/h aus 117

22.5 km/h aus W

10.9 C

18.7 C

19.1 C

18.7 C

203 W/m

0.00 mm

13:30

19.3 C

1010.3 hpa

57 %

16.1 km/h aus 116

24.1 km/h aus W

10.6 C

17.8 C

18.2 C

18.9 C

236 W/m

0.00 mm

13:35

19.6 C

1010.3 hpa

57 %

14.5 km/h aus 117

25.7 km/h aus W

10.8 C

18.4 C

18.8 C

19.2 C

326 W/m

0.00 mm

13:40

19.4 C

1010.3 hpa

58 %

14.5 km/h aus 115

24.1 km/h aus W

10.9 C

18.3 C

18.7 C

19.0 C

472 W/m

0.00 mm

13:45

20.2 C

1010.2 hpa

56 %

14.5 km/h aus 116

24.1 km/h aus WNW

11.1 C

18.9 C

19.4 C

19.7 C

909 W/m

0.00 mm

13:50

20.8 C

1010.2 hpa

57 %

11.3 km/h aus 117

20.9 km/h aus WNW

11.9 C

20.3 C

20.8 C

20.3 C

892 W/m

0.00 mm

13:55

21.1 C

1010.2 hpa

54 %

11.3 km/h aus 116

20.9 km/h aus W

11.4 C

20.3 C

21.1 C

20.3 C

916 W/m

0.00 mm

14:00

20.7 C

1010.2 hpa

52 %

12.9 km/h aus 116

25.7 km/h aus WSW

10.5 C

19.7 C

20.4 C

20.0 C

907 W/m

0.00 mm

14:05

20.4 C

1010.2 hpa

49 %

16.1 km/h aus 114

33.8 km/h aus WSW

9.4 C

18.4 C

19.3 C

19.6 C

337 W/m

0.00 mm

14:10

20.2 C

1010.2 hpa

52 %

14.5 km/h aus 118

24.1 km/h aus WSW

10.0 C

18.8 C

19.4 C

19.6 C

392 W/m

0.00 mm

14:15

20.9 C

1010.2 hpa

54 %

14.5 km/h aus 117

25.7 km/h aus WNW

11.3 C

19.4 C

20.2 C

20.2 C

896 W/m

0.00 mm

14:20

21.0 C

1010.2 hpa

49 %

14.5 km/h aus 117

25.7 km/h aus W

9.9 C

19.3 C

20.2 C

20.1 C

932 W/m

0.00 mm

14:25

21.3 C

1010.2 hpa

52 %

11.3 km/h aus 115

27.4 km/h aus WNW

11.0 C

20.5 C

21.3 C

20.5 C

875 W/m

0.00 mm

14:30

21.1 C

1010.2 hpa

49 %

12.9 km/h aus 116

22.5 km/h aus WSW

10.0 C

19.8 C

20.8 C

20.1 C

873 W/m

0.00 mm

14:35

21.3 C

1010.2 hpa

48 %

9.7 km/h aus 117

16.1 km/h aus WSW

9.8 C

20.3 C

21.3 C

20.3 C

641 W/m

0.00 mm

14:40

20.6 C

1010.2 hpa

48 %

14.5 km/h aus 117

22.5 km/h aus SW

9.2 C

18.9 C

19.8 C

19.7 C

242 W/m

0.00 mm

14:45

20.4 C

1010.1 hpa

49 %

14.5 km/h aus 115

27.4 km/h aus NW

9.4 C

18.8 C

19.7 C

19.6 C

254 W/m

0.00 mm

14:50

21.2 C

1010.1 hpa

52 %

9.7 km/h aus 116

20.9 km/h aus WNW

10.9 C

20.3 C

21.2 C

20.3 C

938 W/m

0.00 mm

14:55

21.2 C

1010.1 hpa

50 %

11.3 km/h aus 116

24.1 km/h aus W

10.3 C

20.2 C

21.2 C

20.2 C

239 W/m

0.00 mm

15:00

21.6 C

1010.1 hpa

50 %

11.3 km/h aus 116

22.5 km/h aus WNW

10.7 C

20.7 C

21.6 C

20.7 C

851 W/m

0.00 mm

15:05

21.7 C

1010.1 hpa

46 %

16.1 km/h aus 115

25.7 km/h aus SW

9.5 C

19.5 C

20.5 C

20.7 C

854 W/m

0.00 mm

15:10

22.0 C

1010.1 hpa

47 %

14.5 km/h aus 116

25.7 km/h aus WSW

10.2 C

20.4 C

21.2 C

21.2 C

863 W/m

0.00 mm

15:15

21.8 C

1010.1 hpa

48 %

12.9 km/h aus 117

19.3 km/h aus W

10.3 C

20.8 C

21.6 C

21.1 C

686 W/m

0.00 mm

15:20

21.1 C

1010.1 hpa

50 %

17.7 km/h aus 117

33.8 km/h aus W

10.3 C

18.7 C

19.7 C

20.2 C

325 W/m

0.00 mm

15:25

21.7 C

1010.1 hpa

49 %

16.1 km/h aus 117

27.4 km/h aus WSW

10.5 C

19.7 C

20.6 C

20.9 C

936 W/m

0.00 mm

15:30

21.8 C

1010.1 hpa

49 %

14.5 km/h aus 113

22.5 km/h aus W

10.6 C

20.2 C

21.0 C

21.0 C

922 W/m

0.00 mm

15:35

21.4 C

1010.1 hpa

47 %

14.5 km/h aus 116

24.1 km/h aus WSW

9.7 C

19.7 C

20.7 C

20.4 C

339 W/m

0.00 mm

15:40

20.8 C

1010.1 hpa

47 %

17.7 km/h aus 117

30.6 km/h aus W

9.1 C

18.4 C

19.4 C

19.8 C

327 W/m

0.00 mm

15:45

20.8 C

1010.2 hpa

49 %

14.5 km/h aus 117

29.0 km/h aus W

9.7 C

19.1 C

20.0 C

19.9 C

409 W/m

0.00 mm

15:50

21.1 C

1010.2 hpa

51 %

16.1 km/h aus 115

24.1 km/h aus W

10.6 C

19.1 C

19.9 C

20.2 C

537 W/m

0.00 mm

15:55

21.3 C

1010.2 hpa

51 %

12.9 km/h aus 114

25.7 km/h aus WSW

10.7 C

20.2 C

21.0 C

20.4 C

496 W/m

0.00 mm

16:00

21.0 C

1010.1 hpa

51 %

14.5 km/h aus 116

27.4 km/h aus W

10.5 C

19.3 C

20.2 C

20.1 C

365 W/m

0.00 mm

16:05

20.6 C

1010.1 hpa

51 %

14.5 km/h aus 116

27.4 km/h aus W

10.1 C

19.1 C

19.8 C

19.8 C

297 W/m

0.00 mm

16:10

20.4 C

1010.1 hpa

52 %

14.5 km/h aus 116

22.5 km/h aus W

10.2 C

18.9 C

19.6 C

19.7 C

300 W/m

0.00 mm

16:15

20.2 C

1010.2 hpa

51 %

14.5 km/h aus 115

25.7 km/h aus W

9.8 C

18.8 C

19.4 C

19.6 C

235 W/m

0.00 mm

16:20

19.9 C

1010.2 hpa

52 %

14.5 km/h aus 116

25.7 km/h aus W

9.8 C

18.6 C

19.2 C

19.3 C

195 W/m

0.00 mm

16:25

19.7 C

1010.2 hpa

53 %

14.5 km/h aus 117

24.1 km/h aus WSW

9.9 C

18.4 C

19.0 C

19.1 C

186 W/m

0.00 mm

16:30

19.7 C

1010.1 hpa

52 %

12.9 km/h aus 117

22.5 km/h aus W

9.6 C

18.7 C

19.4 C

19.1 C

220 W/m

0.00 mm

16:35

19.9 C

1010.1 hpa

52 %

14.5 km/h aus 114

22.5 km/h aus WSW

9.8 C

18.6 C

19.2 C

19.3 C

345 W/m

0.00 mm

16:40

20.6 C

1010.1 hpa

54 %

12.9 km/h aus 116

24.1 km/h aus WSW

11.0 C

19.6 C

20.2 C

20.0 C

513 W/m

0.00 mm

16:45

21.0 C

1010.2 hpa

51 %

12.9 km/h aus 116

22.5 km/h aus W

10.5 C

19.8 C

20.7 C

20.1 C

339 W/m

0.00 mm

16:50

20.2 C

1010.2 hpa

52 %

16.1 km/h aus 117

30.6 km/h aus WSW

10.0 C

18.4 C

19.1 C

19.6 C

268 W/m

0.00 mm

16:55

20.1 C

1010.2 hpa

54 %

11.3 km/h aus 117

20.9 km/h aus WNW

10.5 C

19.6 C

20.1 C

19.6 C

277 W/m

0.00 mm

17:00

20.8 C

1010.3 hpa

54 %

6.4 km/h aus 114

16.1 km/h aus WSW

11.2 C

20.2 C

20.8 C

20.2 C

654 W/m

0.00 mm

17:05

21.4 C

1010.3 hpa

52 %

9.7 km/h aus 117

19.3 km/h aus W

11.2 C

20.7 C

21.4 C

20.7 C

603 W/m

0.00 mm

17:10

21.3 C

1010.3 hpa

50 %

14.5 km/h aus 117

24.1 km/h aus W

10.5 C

19.7 C

20.6 C

20.4 C

657 W/m

0.00 mm

17:15

21.7 C

1010.2 hpa

51 %

9.7 km/h aus 117

17.7 km/h aus W

11.1 C

21.0 C

21.7 C

21.0 C

664 W/m

0.00 mm

17:20

21.2 C

1010.2 hpa

51 %

12.9 km/h aus 116

27.4 km/h aus W

10.7 C

20.1 C

20.9 C

20.3 C

265 W/m

0.00 mm

17:25

20.6 C

1010.2 hpa

51 %

16.1 km/h aus 115

27.4 km/h aus WSW

10.1 C

18.7 C

19.4 C

19.8 C

209 W/m

0.00 mm

17:30

20.2 C

1010.3 hpa

53 %

12.9 km/h aus 117

25.7 km/h aus WSW

10.3 C

19.2 C

19.8 C

19.6 C

171 W/m

0.00 mm

17:35

20.2 C

1010.3 hpa

54 %

16.1 km/h aus 117

29.0 km/h aus W

10.6 C

18.4 C

19.0 C

19.6 C

245 W/m

0.00 mm

17:40

20.8 C

1010.3 hpa

53 %

14.5 km/h aus 116

29.0 km/h aus WSW

10.8 C

19.3 C

20.0 C

20.1 C

536 W/m

0.00 mm

17:45

20.7 C

1010.3 hpa

52 %

12.9 km/h aus 114

25.7 km/h aus W

10.5 C

19.7 C

20.4 C

20.0 C

256 W/m

0.00 mm

17:50

20.4 C

1010.3 hpa

54 %

11.3 km/h aus 117

24.1 km/h aus WSW

10.8 C

19.9 C

20.4 C

19.9 C

193 W/m

0.00 mm

17:55

20.1 C

1010.3 hpa

53 %

16.1 km/h aus 117

27.4 km/h aus WSW

10.2 C

18.4 C

18.9 C

19.6 C

182 W/m

0.00 mm

18:00

19.9 C

1010.6 hpa

55 %

12.9 km/h aus 117

24.1 km/h aus WSW

10.6 C

19.1 C

19.5 C

19.4 C

155 W/m

0.00 mm

18:05

19.8 C

1010.6 hpa

55 %

12.9 km/h aus 112

25.7 km/h aus W

10.5 C

18.9 C

19.4 C

19.3 C

218 W/m

0.00 mm

18:10

20.2 C

1010.6 hpa

55 %

14.5 km/h aus 115

24.1 km/h aus W

10.8 C

18.9 C

19.4 C

19.7 C

300 W/m

0.00 mm

18:15

19.9 C

1010.6 hpa

56 %

16.1 km/h aus 117

24.1 km/h aus W

10.8 C

18.3 C

18.7 C

19.5 C

193 W/m

0.00 mm

18:20

19.7 C

1010.6 hpa

57 %

14.5 km/h aus 117

20.9 km/h aus SW

10.9 C

18.6 C

18.9 C

19.3 C

164 W/m

0.00 mm

18:25

19.6 C

1010.6 hpa

55 %

12.9 km/h aus 116

22.5 km/h aus WSW

10.3 C

18.7 C

19.2 C

19.1 C

149 W/m

0.00 mm

18:30

19.4 C

1010.7 hpa

57 %

11.3 km/h aus 115

24.1 km/h aus W

10.7 C

19.1 C

19.4 C

19.1 C

145 W/m

0.00 mm

18:35

19.3 C

1010.7 hpa

57 %

12.9 km/h aus 117

22.5 km/h aus W

10.6 C

18.6 C

19.0 C

18.9 C

158 W/m

0.00 mm

18:40

19.3 C

1010.7 hpa

57 %

12.9 km/h aus 117

20.9 km/h aus W

10.6 C

18.6 C

19.0 C

18.9 C

179 W/m

0.00 mm

18:45

19.3 C

1010.7 hpa

59 %

11.3 km/h aus 117

19.3 km/h aus W

11.1 C

19.0 C

19.3 C

19.0 C

153 W/m

0.00 mm

18:50

19.3 C

1010.7 hpa

59 %

9.7 km/h aus 116

19.3 km/h aus WSW

11.1 C

19.0 C

19.3 C

19.0 C

138 W/m

0.00 mm

18:55

19.3 C

1010.7 hpa

58 %

11.3 km/h aus 115

19.3 km/h aus W

10.8 C

18.9 C

19.3 C

18.9 C

107 W/m

0.00 mm

19:00

19.2 C

1010.7 hpa

57 %

14.5 km/h aus 117

20.9 km/h aus W

10.4 C

18.0 C

18.4 C

18.7 C

92 W/m

0.00 mm

19:05

19.2 C

1010.7 hpa

58 %

12.9 km/h aus 115

19.3 km/h aus WSW

10.7 C

18.4 C

18.8 C

18.7 C

86 W/m

0.00 mm

19:10

19.2 C

1010.7 hpa

58 %

9.7 km/h aus 117

19.3 km/h aus W

10.7 C

18.7 C

19.2 C

18.7 C

66 W/m

0.00 mm

19:15

19.2 C

1010.9 hpa

59 %

9.7 km/h aus 115

17.7 km/h aus SW

11.0 C

18.8 C

19.2 C

18.8 C

41 W/m

0.00 mm

19:20

19.1 C

1010.9 hpa

58 %

9.7 km/h aus 116

19.3 km/h aus SW

10.6 C

18.7 C

19.1 C

18.7 C

39 W/m

0.00 mm

19:25

19.1 C

1010.9 hpa

59 %

9.7 km/h aus 118

16.1 km/h aus W

10.9 C

18.7 C

19.1 C

18.7 C

69 W/m

0.00 mm

19:30

19.1 C

1011.0 hpa

58 %

9.7 km/h aus 117

19.3 km/h aus SW

10.6 C

18.6 C

19.1 C

18.6 C

86 W/m

0.00 mm

19:35

19.1 C

1011.0 hpa

56 %

11.3 km/h aus 116

22.5 km/h aus WSW

10.1 C

18.5 C

19.1 C

18.5 C

79 W/m

0.00 mm

19:40

19.1 C

1011.0 hpa

57 %

12.9 km/h aus 115

19.3 km/h aus WSW

10.3 C

18.2 C

18.7 C

18.6 C

112 W/m

0.00 mm

19:45

19.1 C

1011.0 hpa

56 %

11.3 km/h aus 117

22.5 km/h aus SW

10.1 C

18.5 C

19.1 C

18.5 C

108 W/m

0.00 mm

19:50

19.0 C

1011.0 hpa

56 %

14.5 km/h aus 116

24.1 km/h aus WSW

10.0 C

17.7 C

18.3 C

18.4 C

44 W/m

0.00 mm

19:55

18.9 C

1011.0 hpa

56 %

11.3 km/h aus 117

19.3 km/h aus WSW

10.0 C

18.4 C

18.9 C

18.4 C

24 W/m

0.00 mm

20:00

18.8 C

1011.1 hpa

56 %

9.7 km/h aus 114

19.3 km/h aus WSW

9.9 C

18.3 C

18.8 C

18.3 C

19 W/m

0.00 mm

20:05

18.7 C

1011.1 hpa

56 %

11.3 km/h aus 116

19.3 km/h aus WSW

9.8 C

18.1 C

18.7 C

18.1 C

18 W/m

0.00 mm

20:10

18.7 C

1011.1 hpa

56 %

9.7 km/h aus 117

20.9 km/h aus SSW

9.7 C

18.1 C

18.7 C

18.1 C

15 W/m

0.00 mm

20:15

18.6 C

1011.1 hpa

57 %

6.4 km/h aus 117

14.5 km/h aus SSW

9.9 C

18.0 C

18.6 C

18.0 C

12 W/m

0.00 mm

20:20

18.5 C

1011.1 hpa

57 %

6.4 km/h aus 117

17.7 km/h aus SSW

9.8 C

17.9 C

18.5 C

17.9 C

10 W/m

0.00 mm

20:25

18.4 C

1011.1 hpa

59 %

12.9 km/h aus 114

25.7 km/h aus SSW

10.2 C

17.6 C

18.1 C

17.9 C

4 W/m

0.00 mm

20:30

18.3 C

1011.6 hpa

61 %

8.0 km/h aus 116

17.7 km/h aus SW

10.6 C

17.9 C

18.3 C

17.9 C

0 W/m

0.00 mm

20:35

18.2 C

1011.6 hpa

64 %

14.5 km/h aus 117

24.1 km/h aus WSW

11.2 C

17.1 C

17.3 C

17.9 C

0 W/m

0.00 mm

20:40

17.9 C

1011.6 hpa

66 %

11.3 km/h aus 117

20.9 km/h aus SW

11.4 C

17.7 C

17.9 C

17.7 C

0 W/m

0.00 mm

20:45

17.7 C

1011.7 hpa

69 %

8.0 km/h aus 115

17.7 km/h aus WSW

12.0 C

17.6 C

17.7 C

17.6 C

0 W/m

0.51 mm

20:50

17.4 C

1011.7 hpa

71 %

6.4 km/h aus 114

12.9 km/h aus SSW

12.1 C

17.3 C

17.4 C

17.3 C

3 W/m

0.00 mm

20:55

17.2 C

1011.7 hpa

73 %

4.8 km/h aus 117

11.3 km/h aus SW

12.3 C

17.1 C

17.2 C

17.1 C

0 W/m

0.00 mm

21:00

16.9 C

1011.7 hpa

74 %

4.8 km/h aus 117

11.3 km/h aus SW

12.3 C

16.8 C

16.9 C

16.8 C

0 W/m

0.00 mm

21:05

16.7 C

1011.7 hpa

75 %

3.2 km/h aus 116

8.0 km/h aus SW

12.3 C

16.6 C

16.7 C

16.6 C

0 W/m

0.00 mm

21:10

16.6 C

1011.7 hpa

76 %

1.6 km/h aus 115

8.0 km/h aus SW

12.3 C

16.5 C

16.6 C

16.5 C

0 W/m

0.00 mm

21:15

16.4 C

1011.8 hpa

77 %

4.8 km/h aus 115

8.0 km/h aus SW

12.3 C

16.3 C

16.4 C

16.3 C

0 W/m

0.00 mm

21:20

16.3 C

1011.8 hpa

77 %

1.6 km/h aus 116

8.0 km/h aus SW

12.2 C

16.2 C

16.3 C

16.2 C

0 W/m

0.00 mm

21:25

16.2 C

1011.8 hpa

78 %

3.2 km/h aus 117

4.8 km/h aus SSW

12.4 C

16.2 C

16.2 C

16.2 C

0 W/m

0.00 mm

21:30

16.1 C

1011.8 hpa

78 %

1.6 km/h aus 117

4.8 km/h aus SSW

12.3 C

16.1 C

16.1 C

16.1 C

0 W/m

0.00 mm

21:35

16.1 C

1011.8 hpa

79 %

1.6 km/h aus 117

4.8 km/h aus SSW

12.4 C

16.0 C

16.1 C

16.0 C

0 W/m

0.00 mm

21:40

15.9 C

1011.8 hpa

80 %

0.0 km/h aus 115

1.6 km/h aus SSW

12.5 C

15.9 C

15.9 C

15.9 C

0 W/m

0.00 mm

21:45

15.8 C

1011.9 hpa

80 %

0.0 km/h aus 116

3.2 km/h aus SSW

12.4 C

15.8 C

15.8 C

15.8 C

0 W/m

0.00 mm

21:50

15.7 C

1011.9 hpa

82 %

0.0 km/h aus 117

0.0 km/h aus ---

12.7 C

15.7 C

15.7 C

15.7 C

0 W/m

0.00 mm

21:55

15.6 C

1011.9 hpa

81 %

0.0 km/h aus 117

0.0 km/h aus ---

12.4 C

15.6 C

15.6 C

15.6 C

0 W/m

0.00 mm

22:00

15.5 C

1012.0 hpa

81 %

0.0 km/h aus 116

0.0 km/h aus ---

12.3 C

15.4 C

15.5 C

15.4 C

0 W/m

0.00 mm

22:05

15.4 C

1012.0 hpa

82 %

0.0 km/h aus 115

0.0 km/h aus ---

12.4 C

15.4 C

15.4 C

15.4 C

0 W/m

0.00 mm

22:10

15.3 C

1012.0 hpa

82 %

0.0 km/h aus 115

0.0 km/h aus ---

12.3 C

15.3 C

15.3 C

15.3 C

0 W/m

0.00 mm

22:15

15.3 C

1012.2 hpa

83 %

0.0 km/h aus 117

0.0 km/h aus ---

12.4 C

15.3 C

15.3 C

15.3 C

0 W/m

0.00 mm

22:20

15.2 C

1012.2 hpa

84 %

0.0 km/h aus 116

0.0 km/h aus ---

12.5 C

15.2 C

15.2 C

15.2 C

0 W/m

0.00 mm

22:25

15.1 C

1012.2 hpa

85 %

0.0 km/h aus 115

0.0 km/h aus ---

12.6 C

15.1 C

15.1 C

15.1 C

0 W/m

0.00 mm

22:30

15.1 C

1012.2 hpa

85 %

0.0 km/h aus 115

0.0 km/h aus ---

12.6 C

15.1 C

15.1 C

15.1 C

0 W/m

0.00 mm

22:35

15.0 C

1012.2 hpa

85 %

1.6 km/h aus 116

6.4 km/h aus SSW

12.5 C

15.0 C

15.0 C

15.0 C

0 W/m

0.00 mm

22:40

14.9 C

1012.2 hpa

85 %

1.6 km/h aus 117

4.8 km/h aus SSW

12.4 C

14.9 C

14.9 C

14.9 C

0 W/m

0.00 mm

22:45

14.8 C

1012.2 hpa

85 %

1.6 km/h aus 117

3.2 km/h aus SSW

12.3 C

14.8 C

14.8 C

14.8 C

0 W/m

0.00 mm

22:50

14.7 C

1012.2 hpa

85 %

1.6 km/h aus 116

4.8 km/h aus SSW

12.2 C

14.7 C

14.7 C

14.7 C

0 W/m

0.00 mm

22:55

14.6 C

1012.2 hpa

85 %

3.2 km/h aus 114

6.4 km/h aus SSW

12.1 C

14.6 C

14.6 C

14.6 C

0 W/m

0.00 mm

23:00

14.5 C

1012.2 hpa

84 %

4.8 km/h aus 116

4.8 km/h aus SSW

11.8 C

14.4 C

14.5 C

14.4 C

0 W/m

0.00 mm

23:05

14.4 C

1012.2 hpa

84 %

1.6 km/h aus 116

4.8 km/h aus SSW

11.7 C

14.3 C

14.4 C

14.3 C

0 W/m

0.00 mm

23:10

14.3 C

1012.2 hpa

84 %

1.6 km/h aus 117

4.8 km/h aus SSW

11.6 C

14.2 C

14.3 C

14.2 C

0 W/m

0.00 mm

23:15

14.2 C

1012.2 hpa

84 %

1.6 km/h aus 117

3.2 km/h aus SSW

11.5 C

14.1 C

14.2 C

14.1 C

0 W/m

0.00 mm

23:20

14.0 C

1012.2 hpa

83 %

0.0 km/h aus 115

0.0 km/h aus ---

11.2 C

13.9 C

14.0 C

13.9 C

0 W/m

0.00 mm

23:25

13.9 C

1012.2 hpa

84 %

0.0 km/h aus 114

0.0 km/h aus ---

11.2 C

13.8 C

13.9 C

13.8 C

0 W/m

0.00 mm

23:30

13.8 C

1012.2 hpa

84 %

0.0 km/h aus 116

0.0 km/h aus ---

11.1 C

13.7 C

13.8 C

13.7 C

0 W/m

0.00 mm

23:35

13.7 C

1012.2 hpa

84 %

0.0 km/h aus 117

0.0 km/h aus ---

11.0 C

13.6 C

13.7 C

13.6 C

0 W/m

0.00 mm

23:40

13.6 C

1012.2 hpa

85 %

0.0 km/h aus 118

0.0 km/h aus ---

11.1 C

13.5 C

13.6 C

13.5 C

0 W/m

0.00 mm

23:45

13.5 C

1012.2 hpa

85 %

0.0 km/h aus 116

0.0 km/h aus ---

11.0 C

13.4 C

13.5 C

13.4 C

0 W/m

0.00 mm

23:50

13.4 C

1012.2 hpa

85 %

0.0 km/h aus 114

0.0 km/h aus ---

10.9 C

13.3 C

13.4 C

13.3 C

0 W/m

0.00 mm

23:55

13.3 C

1012.2 hpa

85 %

0.0 km/h aus 116

0.0 km/h aus ---

10.8 C

13.2 C

13.3 C

13.2 C

0 W/m

0.00 mm